Time,TemperatureF,DewpointF,PressureIn,WindDirection,WindDirectionDegrees,WindSpeedMPH,WindSpeedGustMPH,Humidity,HourlyPrecipIn,Conditions,Clouds,dailyrainin,SoftwareType,DateUTC
2013-05-20 00:02:00,72.0,14.0,-100.00,WSW,248,10.0,12.0,11,-99.99,,,-99.99,,2013-05-20 05:02:00,
2013-05-20 00:12:00,72.0,12.0,-100.00,WSW,243,12.0,13.0,10,-99.99,,,-99.99,,2013-05-20 05:12:00,
2013-05-20 00:21:00,72.0,12.0,-100.00,WSW,242,11.0,14.0,10,-99.99,,,-99.99,,2013-05-20 05:21:00,
2013-05-20 00:32:00,72.0,12.0,-100.00,WSW,246,11.0,14.0,10,-99.99,,,-99.99,,2013-05-20 05:32:00,
2013-05-20 00:42:00,72.0,12.0,-100.00,WSW,246,11.0,14.0,10,-99.99,,,-99.99,,2013-05-20 05:42:00,
2013-05-20 00:51:00,72.0,12.0,-100.00,WSW,255,11.0,13.0,10,-99.99,,,-99.99,,2013-05-20 05:51:00,
2013-05-20 01:01:00,72.0,14.0,-100.00,West,262,11.0,13.0,11,-99.99,,,-99.99,,2013-05-20 06:01:00,
2013-05-20 01:11:00,72.0,14.0,-100.00,West,260,11.0,13.0,11,-99.99,,,-99.99,,2013-05-20 06:11:00,
2013-05-20 01:21:00,72.0,14.0,-100.00,West,260,11.0,14.0,11,-99.99,,,-99.99,,2013-05-20 06:21:00,
2013-05-20 01:32:00,72.0,14.0,-100.00,WSW,257,12.0,14.0,11,-99.99,,,-99.99,,2013-05-20 06:32:00,
2013-05-20 01:41:00,72.0,14.0,-100.00,WSW,251,11.0,15.0,11,-99.99,,,-99.99,,2013-05-20 06:41:00,
2013-05-20 01:52:00,72.0,14.0,-100.00,WSW,252,11.0,14.0,11,-99.99,,,-99.99,,2013-05-20 06:52:00,
2013-05-20 02:02:00,72.0,14.0,-100.00,WSW,257,11.0,13.0,11,-99.99,,,-99.99,,2013-05-20 07:02:00,
2013-05-20 02:12:00,72.0,14.0,-100.00,West,260,11.0,12.0,11,-99.99,,,-99.99,,2013-05-20 07:12:00,
2013-05-20 02:21:00,72.0,14.0,-100.00,West,266,11.0,14.0,11,-99.99,,,-99.99,,2013-05-20 07:21:00,
2013-05-20 02:32:00,72.0,14.0,-100.00,West,272,12.0,15.0,11,-99.99,,,-99.99,,2013-05-20 07:32:00,
2013-05-20 02:42:00,72.0,14.0,-100.00,West,279,12.0,16.0,11,-99.99,,,-99.99,,2013-05-20 07:42:00,
2013-05-20 02:52:00,72.0,14.0,-100.00,WNW,282,12.0,16.0,11,-99.99,,,-99.99,,2013-05-20 07:52:00,
2013-05-20 03:01:00,70.0,13.0,-100.00,WNW,287,13.0,16.0,11,-99.99,,,-99.99,,2013-05-20 08:01:00,
2013-05-20 03:11:00,70.0,13.0,-100.00,NW,307,13.0,15.0,11,-99.99,,,-99.99,,2013-05-20 08:11:00,
2013-05-20 03:21:00,70.0,13.0,-100.00,WNW,296,11.0,14.0,11,-99.99,,,-99.99,,2013-05-20 08:21:00,
2013-05-20 03:32:00,70.0,13.0,-100.00,WNW,295,12.0,17.0,11,-99.99,,,-99.99,,2013-05-20 08:32:00,
2013-05-20 03:41:00,70.0,13.0,-100.00,WNW,297,13.0,18.0,11,-99.99,,,-99.99,,2013-05-20 08:41:00,
2013-05-20 03:51:00,70.0,13.0,-100.00,WNW,298,13.0,18.0,11,-99.99,,,-99.99,,2013-05-20 08:51:00,
2013-05-20 04:02:00,70.0,13.0,-100.00,WNW,301,14.0,20.0,11,-99.99,,,-99.99,,2013-05-20 09:02:00,
2013-05-20 04:12:00,70.0,13.0,-100.00,NW,309,14.0,20.0,11,-99.99,,,-99.99,,2013-05-20 09:12:00,
2013-05-20 04:21:00,68.0,12.0,-100.00,NW,306,15.0,18.0,11,-99.99,,,-99.99,,2013-05-20 09:21:00,
2013-05-20 04:32:00,68.0,12.0,-100.00,NW,308,15.0,18.0,11,-99.99,,,-99.99,,2013-05-20 09:32:00,
2013-05-20 04:43:00,66.0,12.0,-100.00,NW,319,15.0,19.0,12,-99.99,,,-99.99,,2013-05-20 09:43:00,
2013-05-20 04:52:00,66.0,12.0,-100.00,NW,314,17.0,21.0,12,-99.99,,,-99.99,,2013-05-20 09:52:00,
2013-05-20 05:03:00,66.0,12.0,-100.00,NW,312,18.0,23.0,12,-99.99,,,-99.99,,2013-05-20 10:03:00,
2013-05-20 05:12:00,66.0,12.0,-100.00,NW,313,22.0,27.0,12,-99.99,,,-99.99,,2013-05-20 10:12:00,
2013-05-20 05:22:00,66.0,12.0,-100.00,NW,320,26.0,32.0,12,-99.99,,,-99.99,,2013-05-20 10:22:00,
2013-05-20 05:32:00,66.0,12.0,-100.00,NNW,328,27.0,32.0,12,-99.99,,,-99.99,,2013-05-20 10:32:00,
2013-05-20 05:42:00,64.0,11.0,-100.00,NNW,327,29.0,36.0,12,-99.99,,,-99.99,,2013-05-20 10:42:00,
2013-05-20 05:52:00,64.0,13.0,-100.00,NW,323,28.0,38.0,13,-99.99,,,-99.99,,2013-05-20 10:52:00,
2013-05-20 06:02:00,64.0,13.0,-100.00,NW,320,28.0,36.0,13,-99.99,,,-99.99,,2013-05-20 11:02:00,
2013-05-20 06:12:00,64.0,14.0,-100.00,NNW,332,23.0,30.0,14,-99.99,,,-99.99,,2013-05-20 11:12:00,
2013-05-20 06:21:00,64.0,14.0,-100.00,NW,320,27.0,36.0,14,-99.99,,,-99.99,,2013-05-20 11:21:00,
2013-05-20 06:32:00,64.0,16.0,-100.00,NW,322,27.0,35.0,15,-99.99,,,-99.99,,2013-05-20 11:32:00,
2013-05-20 06:42:00,64.0,16.0,-100.00,NW,324,26.0,37.0,15,-99.99,,,-99.99,,2013-05-20 11:42:00,
2013-05-20 06:51:00,63.0,14.0,-100.00,NW,322,28.0,37.0,15,-99.99,,,-99.99,,2013-05-20 11:51:00,
2013-05-20 07:01:00,64.0,19.0,-100.00,NW,319,30.0,38.0,17,-99.99,,,-99.99,,2013-05-20 12:01:00,
2013-05-20 07:11:00,64.0,19.0,-100.00,NW,316,32.0,78.0,17,-99.99,,,-99.99,,2013-05-20 12:11:00,
2013-05-20 07:21:00,63.0,17.0,-100.00,NW,321,31.0,79.0,17,-99.99,,,-99.99,,2013-05-20 12:21:00,
2013-05-20 07:32:00,63.0,19.0,-100.00,NW,319,31.0,40.0,18,-99.99,,,-99.99,,2013-05-20 12:32:00,
2013-05-20 07:41:00,64.0,20.0,-100.00,NW,321,35.0,43.0,18,-99.99,,,-99.99,,2013-05-20 12:41:00,
2013-05-20 07:52:00,64.0,20.0,-100.00,NW,320,35.0,74.0,18,-99.99,,,-99.99,,2013-05-20 12:52:00,
2013-05-20 08:01:00,64.0,20.0,-100.00,NW,319,35.0,45.0,18,-99.99,,,-99.99,,2013-05-20 13:01:00,
2013-05-20 08:11:00,64.0,20.0,-100.00,NW,323,34.0,41.0,18,-99.99,,,-99.99,,2013-05-20 13:11:00,
2013-05-20 08:22:00,64.0,20.0,-100.00,NW,318,36.0,45.0,18,-99.99,,,-99.99,,2013-05-20 13:22:00,
2013-05-20 08:31:00,64.0,20.0,-100.00,NW,318,36.0,45.0,18,-99.99,,,-99.99,,2013-05-20 13:31:00,
2013-05-20 08:41:00,64.0,20.0,-100.00,NW,318,36.0,45.0,18,-99.99,,,-99.99,,2013-05-20 13:41:00,
2013-05-20 08:52:00,64.0,21.0,-100.00,NW,318,33.0,44.0,19,-99.99,,,-99.99,,2013-05-20 13:52:00,
2013-05-20 09:01:00,64.0,21.0,-100.00,NW,318,33.0,44.0,19,-99.99,,,-99.99,,2013-05-20 14:01:00,
2013-05-20 09:11:00,64.0,21.0,-100.00,NW,318,32.0,42.0,19,-99.99,,,-99.99,,2013-05-20 14:11:00,
2013-05-20 09:22:00,64.0,21.0,-100.00,NW,322,37.0,50.0,19,-99.99,,,-99.99,,2013-05-20 14:22:00,
2013-05-20 09:32:00,64.0,21.0,-100.00,NW,321,36.0,48.0,19,-99.99,,,-99.99,,2013-05-20 14:32:00,
2013-05-20 09:41:00,64.0,21.0,-100.00,NW,322,38.0,48.0,19,-99.99,,,-99.99,,2013-05-20 14:41:00,
2013-05-20 09:52:00,64.0,20.0,-100.00,NW,316,39.0,50.0,18,-99.99,,,-99.99,,2013-05-20 14:52:00,
2013-05-20 10:01:00,64.0,20.0,-100.00,NW,316,39.0,50.0,18,-99.99,,,-99.99,,2013-05-20 15:01:00,
2013-05-20 10:11:00,66.0,20.0,-100.00,NW,322,44.0,51.0,17,-99.99,,,-99.99,,2013-05-20 15:11:00,
2013-05-20 10:21:00,66.0,20.0,-100.00,NW,319,36.0,50.0,17,-99.99,,,-99.99,,2013-05-20 15:21:00,
2013-05-20 10:33:00,66.0,19.0,-100.00,NW,315,38.0,53.0,16,-99.99,,,-99.99,,2013-05-20 15:33:00,
2013-05-20 10:42:00,66.0,17.0,-100.00,NW,323,40.0,52.0,15,-99.99,,,-99.99,,2013-05-20 15:42:00,
2013-05-20 10:53:00,66.0,17.0,-100.00,NW,322,39.0,51.0,15,-99.99,,,-99.99,,2013-05-20 15:53:00,
2013-05-20 11:03:00,68.0,19.0,-100.00,NW,320,35.0,51.0,15,-99.99,,,-99.99,,2013-05-20 16:03:00,
2013-05-20 11:12:00,68.0,19.0,-100.00,NW,322,43.0,63.0,15,-99.99,,,-99.99,,2013-05-20 16:12:00,
2013-05-20 11:22:00,68.0,17.0,-100.00,NW,320,33.0,46.0,14,-99.99,,,-99.99,,2013-05-20 16:22:00,
2013-05-20 11:33:00,68.0,17.0,-100.00,NW,321,32.0,44.0,14,-99.99,,,-99.99,,2013-05-20 16:33:00,
2013-05-20 11:42:00,68.0,17.0,-100.00,NW,326,33.0,43.0,14,-99.99,,,-99.99,,2013-05-20 16:42:00,
2013-05-20 11:52:00,68.0,17.0,-100.00,NW,312,33.0,43.0,14,-99.99,,,-99.99,,2013-05-20 16:52:00,
2013-05-20 12:02:00,68.0,17.0,-100.00,NW,316,27.0,38.0,14,-99.99,,,-99.99,,2013-05-20 17:02:00,
2013-05-20 12:12:00,68.0,17.0,-100.00,NW,316,27.0,38.0,14,-99.99,,,-99.99,,2013-05-20 17:12:00,
2013-05-20 12:22:00,70.0,18.0,-100.00,NW,316,27.0,39.0,14,-99.99,,,-99.99,,2013-05-20 17:22:00,
2013-05-20 12:33:00,70.0,18.0,-100.00,WNW,303,20.0,28.0,14,-99.99,,,-99.99,,2013-05-20 17:33:00,
2013-05-20 12:45:00,70.0,17.0,-100.00,NW,311,26.0,37.0,13,-99.99,,,-99.99,,2013-05-20 17:45:00,
2013-05-20 12:53:00,72.0,18.0,-100.00,WNW,302,22.0,32.0,13,-99.99,,,-99.99,,2013-05-20 17:53:00,
2013-05-20 13:02:00,72.0,18.0,-100.00,NW,308,20.0,33.0,13,-99.99,,,-99.99,,2013-05-20 18:02:00,
2013-05-20 13:12:00,72.0,18.0,-100.00,NW,324,19.0,30.0,13,-99.99,,,-99.99,,2013-05-20 18:12:00,
2013-05-20 13:23:00,73.0,20.0,-100.00,NW,305,21.0,30.0,13,-99.99,,,-99.99,,2013-05-20 18:23:00,
2013-05-20 13:32:00,72.0,18.0,-100.00,NW,308,24.0,35.0,13,-99.99,,,-99.99,,2013-05-20 18:32:00,
2013-05-20 13:42:00,72.0,18.0,-100.00,WNW,298,20.0,38.0,13,-99.99,,,-99.99,,2013-05-20 18:42:00,
2013-05-20 13:55:00,73.0,18.0,-100.00,WNW,301,17.0,30.0,12,-99.99,,,-99.99,,2013-05-20 18:55:00,
2013-05-20 14:04:00,73.0,18.0,-100.00,WNW,301,17.0,30.0,12,-99.99,,,-99.99,,2013-05-20 19:04:00,
2013-05-20 14:11:00,72.0,16.0,-100.00,WNW,282,15.0,24.0,12,-99.99,,,-99.99,,2013-05-20 19:11:00,
2013-05-20 14:21:00,73.0,18.0,-100.00,WNW,300,19.0,27.0,12,-99.99,,,-99.99,,2013-05-20 19:21:00,
2013-05-20 14:32:00,73.0,18.0,-100.00,NW,310,16.0,27.0,12,-99.99,,,-99.99,,2013-05-20 19:32:00,
2013-05-20 14:41:00,73.0,18.0,-100.00,NW,310,16.0,27.0,12,-99.99,,,-99.99,,2013-05-20 19:41:00,
2013-05-20 14:52:00,75.0,19.0,-100.00,NW,320,11.0,23.0,12,-99.99,,,-99.99,,2013-05-20 19:52:00,
2013-05-20 15:01:00,75.0,19.0,-100.00,NW,320,11.0,23.0,12,-99.99,,,-99.99,,2013-05-20 20:01:00,
2013-05-20 15:12:00,77.0,18.0,-100.00,West,271,11.0,17.0,11,-99.99,,,-99.99,,2013-05-20 20:12:00,
2013-05-20 15:21:00,75.0,17.0,-100.00,West,274,15.0,27.0,11,-99.99,,,-99.99,,2013-05-20 20:21:00,
2013-05-20 15:32:00,77.0,18.0,-100.00,West,277,13.0,22.0,11,-99.99,,,-99.99,,2013-05-20 20:32:00,
2013-05-20 15:42:00,77.0,16.0,-100.00,WNW,294,13.0,24.0,10,-99.99,,,-99.99,,2013-05-20 20:42:00,
2013-05-20 15:51:00,75.0,15.0,-100.00,WNW,297,16.0,25.0,10,-99.99,,,-99.99,,2013-05-20 20:51:00,
2013-05-20 16:01:00,75.0,15.0,-100.00,WNW,297,16.0,25.0,10,-99.99,,,-99.99,,2013-05-20 21:01:00,
2013-05-20 16:11:00,77.0,16.0,-100.00,WNW,299,16.0,21.0,10,-99.99,,,-99.99,,2013-05-20 21:11:00,
2013-05-20 16:21:00,77.0,16.0,-100.00,WNW,286,15.0,27.0,10,-99.99,,,-99.99,,2013-05-20 21:21:00,
2013-05-20 16:33:00,75.0,15.0,-100.00,WNW,301,15.0,26.0,10,-99.99,,,-99.99,,2013-05-20 21:33:00,
2013-05-20 16:43:00,75.0,15.0,-100.00,WNW,301,15.0,26.0,10,-99.99,,,-99.99,,2013-05-20 21:43:00,
2013-05-20 16:53:00,77.0,18.0,-100.00,West,263,10.0,21.0,11,-99.99,,,-99.99,,2013-05-20 21:53:00,
2013-05-20 17:02:00,77.0,16.0,-100.00,WNW,290,11.0,18.0,10,-99.99,,,-99.99,,2013-05-20 22:02:00,
2013-05-20 17:12:00,77.0,16.0,-100.00,WNW,297,11.0,24.0,10,-99.99,,,-99.99,,2013-05-20 22:12:00,
2013-05-20 17:23:00,77.0,14.0,-100.00,WNW,300,11.0,22.0,9,-99.99,,,-99.99,,2013-05-20 22:23:00,
2013-05-20 17:33:00,79.0,15.0,-100.00,West,260,12.0,23.0,9,-99.99,,,-99.99,,2013-05-20 22:33:00,
2013-05-20 17:42:00,79.0,18.0,-100.00,West,278,10.0,22.0,10,-99.99,,,-99.99,,2013-05-20 22:42:00,
2013-05-20 17:52:00,77.0,16.0,-100.00,WSW,250,14.0,23.0,10,-99.99,,,-99.99,,2013-05-20 22:52:00,
2013-05-20 18:02:00,79.0,18.0,-100.00,West,274,10.0,18.0,10,-99.99,,,-99.99,,2013-05-20 23:02:00,
2013-05-20 18:12:00,79.0,18.0,-100.00,WNW,287,7.0,21.0,10,-99.99,,,-99.99,,2013-05-20 23:12:00,
2013-05-20 18:22:00,77.0,18.0,-100.00,West,261,11.0,18.0,11,-99.99,,,-99.99,,2013-05-20 23:22:00,
2013-05-20 18:32:00,77.0,16.0,-100.00,WNW,286,10.0,18.0,10,-99.99,,,-99.99,,2013-05-20 23:32:00,
2013-05-20 18:42:00,77.0,18.0,-100.00,West,281,12.0,20.0,11,-99.99,,,-99.99,,2013-05-20 23:42:00,
2013-05-20 18:52:00,77.0,16.0,-100.00,WSW,255,13.0,20.0,10,-99.99,,,-99.99,,2013-05-20 23:52:00,
2013-05-20 19:01:00,77.0,16.0,-100.00,WSW,256,15.0,29.0,10,-99.99,,,-99.99,,2013-05-21 00:01:00,
2013-05-20 19:11:00,77.0,16.0,-100.00,WSW,257,14.0,24.0,10,-99.99,,,-99.99,,2013-05-21 00:11:00,
2013-05-20 19:21:00,77.0,14.0,-100.00,West,265,12.0,19.0,9,-99.99,,,-99.99,,2013-05-21 00:21:00,
2013-05-20 19:32:00,77.0,16.0,-100.00,West,264,20.0,67.0,10,-99.99,,,-99.99,,2013-05-21 00:32:00,
2013-05-20 19:42:00,75.0,15.0,-100.00,West,266,11.0,20.0,10,-99.99,,,-99.99,,2013-05-21 00:42:00,
2013-05-20 19:52:00,77.0,16.0,-100.00,WSW,255,14.0,21.0,10,-99.99,,,-99.99,,2013-05-21 00:52:00,
2013-05-20 20:01:00,77.0,16.0,-100.00,WSW,255,14.0,21.0,10,-99.99,,,-99.99,,2013-05-21 01:01:00,
2013-05-20 20:11:00,75.0,15.0,-100.00,West,273,14.0,20.0,10,-99.99,,,-99.99,,2013-05-21 01:11:00,
2013-05-20 20:22:00,75.0,15.0,-100.00,WSW,255,12.0,21.0,10,-99.99,,,-99.99,,2013-05-21 01:22:00,
2013-05-20 20:32:00,75.0,15.0,-100.00,West,276,12.0,21.0,10,-99.99,,,-99.99,,2013-05-21 01:32:00,
2013-05-20 20:42:00,75.0,15.0,-100.00,WSW,256,13.0,17.0,10,-99.99,,,-99.99,,2013-05-21 01:42:00,
2013-05-20 20:52:00,75.0,15.0,-100.00,West,280,11.0,17.0,10,-99.99,,,-99.99,,2013-05-21 01:52:00,
2013-05-20 21:02:00,73.0,14.0,-100.00,WNW,283,9.0,17.0,10,-99.99,,,-99.99,,2013-05-21 02:02:00,
2013-05-20 21:11:00,73.0,16.0,-100.00,West,270,8.0,10.0,11,-99.99,,,-99.99,,2013-05-21 02:11:00,
2013-05-20 21:21:00,73.0,16.0,-100.00,West,265,11.0,16.0,11,-99.99,,,-99.99,,2013-05-21 02:21:00,
2013-05-20 21:32:00,72.0,14.0,-100.00,WSW,250,9.0,13.0,11,-99.99,,,-99.99,,2013-05-21 02:32:00,
2013-05-20 21:42:00,72.0,14.0,-100.00,West,259,12.0,18.0,11,-99.99,,,-99.99,,2013-05-21 02:42:00,
2013-05-20 21:52:00,72.0,14.0,-100.00,West,271,11.0,15.0,11,-99.99,,,-99.99,,2013-05-21 02:52:00,
2013-05-20 22:02:00,72.0,14.0,-100.00,West,270,10.0,14.0,11,-99.99,,,-99.99,,2013-05-21 03:02:00,
2013-05-20 22:11:00,73.0,16.0,-100.00,West,265,12.0,16.0,11,-99.99,,,-99.99,,2013-05-21 03:11:00,
2013-05-20 22:21:00,72.0,14.0,-100.00,West,279,10.0,14.0,11,-99.99,,,-99.99,,2013-05-21 03:21:00,
2013-05-20 22:33:00,72.0,14.0,-100.00,WNW,283,11.0,14.0,11,-99.99,,,-99.99,,2013-05-21 03:33:00,
2013-05-20 22:43:00,72.0,14.0,-100.00,WNW,285,11.0,13.0,11,-99.99,,,-99.99,,2013-05-21 03:43:00,
2013-05-20 22:53:00,72.0,14.0,-100.00,WNW,287,9.0,11.0,11,-99.99,,,-99.99,,2013-05-21 03:53:00,
2013-05-20 23:03:00,72.0,14.0,-100.00,WNW,284,9.0,12.0,11,-99.99,,,-99.99,,2013-05-21 04:03:00,
2013-05-20 23:13:00,72.0,14.0,-100.00,WNW,282,11.0,14.0,11,-99.99,,,-99.99,,2013-05-21 04:13:00,
2013-05-20 23:23:00,72.0,14.0,-100.00,WNW,285,12.0,16.0,11,-99.99,,,-99.99,,2013-05-21 04:23:00,
2013-05-20 23:33:00,72.0,14.0,-100.00,WNW,292,12.0,15.0,11,-99.99,,,-99.99,,2013-05-21 04:33:00,
2013-05-20 23:42:00,72.0,14.0,-100.00,WNW,292,12.0,15.0,11,-99.99,,,-99.99,,2013-05-21 04:42:00,
2013-05-20 23:52:00,72.0,14.0,-100.00,WNW,296,12.0,16.0,11,-99.99,,,-99.99,,2013-05-21 04:52:00,